Location: *
(41.7492°S, 135.4150°W)
Time: 00:31:27
(UTC+00:00)

BREEZE-M DEB (TANK) - Pass Details

Date: 20 September 2021
Orbit: 294 x 13777 km, 49.6° (Epoch: 24 October)

Event Time Altitude Azimuth Distance (km) Brightness Sun altitude
Exits shadow 12:07:31 55° 69° (ENE) 993 4.1 -30.5°
Drops below altitude 10° 12:15:19 10° 60° (ENE) 4,449 7.7 -29.3°
Sets 12:21:58 0° 58° (ENE) 7,187 8.9 -28.2°
